Total_Precipitation_Accumulation
0.00 0.00 0.04 0.02 0.00 0.01 0.01 0.00 0.00 0.00 0.01 0.01 0.01 0.01 0.00 0.00 0.00 0.00 0.00 0.00 0.00 0.00 0.00 0.00 0.00 0.00 0.01 0.00 0.00 0.00 0.00 0.00 0.00 0.00 0.00 0.00 0.00 0.00 0.00 0.00 0.00 0.00 0.00
0.00 0.00 0.02 0.00 0.00 0.01 0.01 0.01 0.00 0.00 0.00 0.00 0.00 0.00 0.00 0.00 0.00 0.00 0.00 0.00 0.00 0.00 0.00 0.00 0.00 0.00 0.00 0.00 0.00 0.00 0.00 0.00 0.00 0.00 0.00 0.00 0.00 0.00 0.00 0.00 0.00 0.00 0.00
0.00 0.00 0.01 0.00 0.01 0.01 0.01 0.00 0.00 0.00 0.00 0.00 0.01 0.01 0.01 0.01 0.00 0.00 0.00 0.00 0.00 0.00 0.00 0.00 0.00 0.00 0.00 0.00 0.00 0.00 0.00 0.00 0.00 0.00 0.00 0.00 0.00 0.00 0.00 0.00 0.00 0.00 0.00
0.00 0.00 0.00 0.00 0.01 0.01 0.01 0.01 0.01 0.01 0.00 0.01 0.04 0.05 0.04 0.01 0.00 0.00 0.00 0.00 0.00 0.00 0.00 0.00 0.00 0.00 0.00 0.00 0.01 0.00 0.00 0.00 0.00 0.00 0.01 0.04 0.03 0.00 0.00 0.00 0.00 0.00 0.00
0.00 0.00 0.00 0.00 0.01 0.00 0.00 0.01 0.03 0.01 0.00 0.02 0.08 0.09 0.06 0.02 0.01 0.01 0.00 0.00 0.00 0.01 0.00 0.00 0.01 0.00 0.00 0.00 0.01 0.00 0.00 0.00 0.00 0.00 0.01 0.06 0.06 0.01 0.00 0.01 0.01 0.01 0.00
0.00 0.00 0.00 0.00 0.01 0.00 0.00 0.01 0.04 0.06 0.03 0.04 0.07 0.08 0.07 0.05 0.07 0.05 0.01 0.01 0.01 0.01 0.01 0.00 0.00 0.00 0.00 0.00 0.01 0.01 0.01 0.01 0.01 0.01 0.02 0.02 0.03 0.02 0.02 0.05 0.06 0.05 0.02
0.00 0.00 0.00 0.00 0.00 0.00 0.00 0.00 0.01 0.04 0.05 0.06 0.07 0.06 0.04 0.03 0.02 0.02 0.01 0.01 0.01 0.01 0.00 0.00 0.01 0.01 0.01 0.01 0.00 0.00 0.00 0.00 0.01 0.02 0.02 0.03 0.04 0.02 0.04 0.11 0.12 0.09 0.08
0.00 0.00 0.00 0.00 0.00 0.00 0.00 0.00 0.00 0.00 0.01 0.01 0.02 0.01 0.01 0.00 0.02 0.03 0.03 0.01 0.01 0.01 0.01 0.01 0.01 0.02 0.02 0.02 0.01 0.02 0.02 0.01 0.00 0.01 0.04 0.05 0.03 0.04 0.12 0.18 0.19 0.18 0.17
0.00 0.00 0.00 0.00 0.00 0.00 0.00 0.00 0.00 0.00 0.00 0.00 0.00 0.00 0.00 0.00 0.01 0.03 0.05 0.04 0.03 0.03 0.03 0.02 0.01 0.01 0.01 0.02 0.02 0.03 0.02 0.02 0.02 0.02 0.04 0.06 0.05 0.13 0.29 0.35 0.33 0.33 0.31
0.00 0.00 0.00 0.01 0.00 0.00 0.00 0.00 0.00 0.00 0.00 0.00 0.00 0.00 0.00 0.00 0.01 0.03 0.05 0.05 0.06 0.08 0.07 0.04 0.01 0.01 0.01 0.01 0.01 0.02 0.02 0.02 0.01 0.01 0.02 0.03 0.06 0.18 0.35 0.46 0.45 0.42 0.39
0.00 0.00 0.00 0.01 0.01 0.00 0.00 0.00 0.00 0.00 0.00 0.00 0.00 0.00 0.00 0.00 0.00 0.03 0.05 0.07 0.08 0.08 0.06 0.04 0.02 0.02 0.02 0.01 0.02 0.02 0.01 0.01 0.00 0.00 0.01 0.01 0.06 0.15 0.25 0.37 0.41 0.43 0.40
0.00 0.00 0.00 0.01 0.01 0.00 0.00 0.00 0.00 0.00 0.00 0.00 0.01 0.01 0.02 0.03 0.02 0.02 0.03 0.08 0.13 0.14 0.13 0.12 0.09 0.07 0.08 0.08 0.13 0.12 0.04 0.05 0.02 0.01 0.03 0.08 0.13 0.19 0.25 0.30 0.33 0.35 0.33
0.00 0.00 0.00 0.00 0.00 0.00 0.00 0.00 0.00 0.00 0.01 0.01 0.00 0.01 0.02 0.01 0.01 0.01 0.02 0.04 0.08 0.13 0.13 0.17 0.17 0.14 0.15 0.18 0.14 0.11 0.07 0.07 0.07 0.02 0.02 0.12 0.17 0.23 0.37 0.35 0.26 0.21 0.19
0.00 0.00 0.00 0.00 0.00 0.00 0.00 0.00 0.00 0.00 0.00 0.00 0.01 0.00 0.00 0.01 0.00 0.00 0.01 0.02 0.03 0.06 0.10 0.15 0.15 0.14 0.11 0.09 0.10 0.10 0.09 0.11 0.08 0.08 0.06 0.10 0.13 0.17 0.33 0.33 0.23 0.18 0.15
0.00 0.00 0.00 0.00 0.00 0.00 0.00 0.00 0.00 0.00 0.00 0.00 0.01 0.00 0.00 0.00 0.00 0.00 0.01 0.01 0.02 0.03 0.04 0.06 0.09 0.12 0.15 0.10 0.08 0.06 0.08 0.11 0.12 0.15 0.12 0.08 0.07 0.08 0.17 0.21 0.18 0.16 0.15
0.00 0.00 0.00 0.00 0.00 0.00 0.00 0.00 0.00 0.00 0.00 0.00 0.00 0.00 0.00 0.01 0.01 0.01 0.01 0.02 0.03 0.04 0.04 0.06 0.11 0.14 0.19 0.23 0.20 0.12 0.07 0.06 0.08 0.13 0.09 0.05 0.03 0.03 0.07 0.10 0.11 0.11 0.11
0.00 0.00 0.00 0.00 0.00 0.00 0.00 0.00 0.00 0.00 0.00 0.00 0.00 0.00 0.00 0.01 0.02 0.03 0.03 0.04 0.06 0.07 0.09 0.10 0.17 0.20 0.23 0.30 0.19 0.11 0.04 0.02 0.02 0.04 0.04 0.02 0.01 0.02 0.03 0.05 0.05 0.06 0.07
0.00 0.00 0.00 0.00 0.00 0.00 0.00 0.00 0.00 0.00 0.00 0.00 0.00 0.00 0.00 0.01 0.02 0.06 0.08 0.11 0.19 0.17 0.14 0.18 0.31 0.28 0.27 0.27 0.16 0.10 0.04 0.02 0.01 0.01 0.01 0.01 0.01 0.00 0.01 0.03 0.03 0.04 0.05
0.00 0.00 0.00 0.00 0.00 0.00 0.00 0.00 0.00 0.00 0.00 0.00 0.01 0.02 0.03 0.05 0.08 0.16 0.20 0.28 0.33 0.27 0.26 0.27 0.32 0.27 0.18 0.17 0.17 0.14 0.06 0.04 0.02 0.01 0.00 0.00 0.00 0.00 0.00 0.01 0.02 0.03 0.04
0.01 0.01 0.01 0.01 0.00 0.01 0.01 0.02 0.02 0.02 0.02 0.02 0.03 0.07 0.11 0.12 0.16 0.24 0.25 0.29 0.33 0.34 0.33 0.28 0.21 0.24 0.19 0.18 0.29 0.29 0.11 0.04 0.03 0.01 0.00 0.00 0.00 0.01 0.00 0.01 0.02 0.02 0.02
0.02 0.03 0.05 0.05 0.05 0.05 0.07 0.09 0.10 0.10 0.10 0.12 0.17 0.21 0.22 0.23 0.27 0.30 0.24 0.25 0.23 0.21 0.24 0.27 0.22 0.17 0.09 0.15 0.25 0.25 0.09 0.07 0.11 0.05 0.03 0.03 0.03 0.02 0.01 0.01 0.02 0.03 0.02
0.15 0.19 0.19 0.22 0.24 0.21 0.22 0.28 0.34 0.40 0.40 0.39 0.46 0.47 0.46 0.45 0.42 0.37 0.28 0.20 0.14 0.16 0.17 0.17 0.20 0.16 0.10 0.12 0.20 0.28 0.12 0.09 0.12 0.08 0.08 0.12 0.10 0.05 0.03 0.03 0.04 0.08 0.06
0.27 0.30 0.30 0.35 0.40 0.41 0.48 0.61 0.69 0.76 0.78 0.84 0.89 0.91 0.86 0.77 0.67 0.55 0.40 0.24 0.14 0.14 0.17 0.21 0.20 0.18 0.18 0.17 0.24 0.30 0.18 0.10 0.11 0.09 0.13 0.15 0.14 0.11 0.08 0.08 0.06 0.07 0.08
0.38 0.47 0.57 0.65 0.71 0.78 0.85 0.97 1.02 1.04 1.11 1.20 1.25 1.21 1.07 0.90 0.73 0.56 0.39 0.26 0.18 0.19 0.19 0.18 0.16 0.13 0.12 0.16 0.18 0.22 0.28 0.29 0.28 0.14 0.09 0.10 0.13 0.14 0.16 0.13 0.08 0.07 0.08
0.55 0.63 0.76 0.87 0.94 0.99 1.02 1.04 1.09 1.12 1.12 1.10 1.06 0.99 0.90 0.78 0.65 0.49 0.34 0.22 0.17 0.17 0.14 0.12 0.10 0.10 0.09 0.13 0.21 0.27 0.32 0.38 0.43 0.41 0.25 0.20 0.22 0.21 0.20 0.12 0.07 0.06 0.05
0.61 0.63 0.64 0.68 0.74 0.80 0.83 0.84 0.85 0.83 0.79 0.72 0.65 0.60 0.56 0.49 0.38 0.28 0.20 0.15 0.17 0.21 0.17 0.13 0.10 0.09 0.14 0.21 0.26 0.29 0.33 0.34 0.37 0.41 0.32 0.25 0.21 0.14 0.11 0.07 0.05 0.06 0.06